Weather History for KMLU - October, 2012

Change the Weather History Date:

Wednesday, October 24, 2012

  Actual Average Record
Temperature  
Mean Temperature 72 °F 64 °F  
Max Temperature 85 °F 77 °F 90 °F (1934)
Min Temperature 59 °F 50 °F 31 °F (1952)
Degree Days  
Heating Degree Days 0 4  
Month to date heating degree days 41 52  
Since 1 July heating degree days 42 58  
Cooling Degree Days 7 3  
Month to date cooling degree days 83 106  
Year to date cooling degree days 2752 2470  
Growing Degree Days 22 (Base 50)    
Moisture  
Dew Point 61 °F    
Average Humidity 72    
Maximum Humidity 100    
Minimum Humidity 44    
Precipitation  
Precipitation 0.00 in 0.16 in 1.07 in (1986)
Month to date precipitation 1.46 3.72  
Year to date precipitation 50.11 42.83  
Snow  
Snow 0.00 in - - ()
Month to date snowfall 0.0  
Since 1 July snowfall 0.0  
Since 1 September snowfall 0.0  
Snow Depth 0.00 in    
Sea Level Pressure  
Sea Level Pressure 30.05 in    
Wind  
Wind Speed 3 mph (SSE)    
Max Wind Speed 13 mph    
Max Gust Speed 16 mph    
Visibility 5 miles    
Events Fog    
T = Trace of Precipitation, MM = Missing Value Source: NWS Daily Summary

Daily Weather History Graph

Daily Weather History Graph

Search for Another Location

Airport or City:

Trip Planner

Search our weather history database for the weather conditions in past years. The results will help you decide how hot, cold, wet, or windy it might be!

Date:

Astronomy

Oct. 24, 2012 Rise Set
Actual Time 7:19 AM CDT 6:24 PM CDT
Civil Twilight 6:54 AM CDT 6:49 PM CDT
Nautical Twilight 6:25 AM CDT 7:18 PM CDT
Astronomical Twilight 5:56 AM CDT 7:47 PM CDT
Moon 3:27 PM CDT (10/24) 2:30 AM CDT (10/24)
Length of Visible Light 11h 55m
Length of Day
11h 05m
Waxing Gibbous, 76% of the Moon is Illuminated
Oct 24
Waxing Gibbous
Oct 29
Full
Nov 6
Last Quarter
Nov 13
New
Nov 20
First Quarter

Hourly Weather History & Observations

Time (CDT) Temp. Heat Index Dew Point Humidity Pressure Visibility Wind Dir Wind Speed Gust Speed Precip Events Conditions
12:53 AM 62.1 °F - 59.0 °F 90% 30.03 in 10.0 mi Calm Calm - N/A   Clear
1:53 AM 64.9 °F - 61.0 °F 87% 30.03 in 10.0 mi SE 3.5 mph - N/A   Clear
2:53 AM 64.9 °F - 61.0 °F 87% 30.03 in 10.0 mi Calm Calm - N/A   Clear
3:53 AM 63.0 °F - 60.1 °F 90% 30.04 in 8.0 mi Calm Calm - N/A   Clear
4:36 AM 60.8 °F - 59.0 °F 94% 30.05 in 1.5 mi Calm Calm - N/A   Partly Cloudy
4:53 AM 62.1 °F - 60.1 °F 93% 30.05 in 1.5 mi Calm Calm - N/A   Partly Cloudy
5:02 AM 60.8 °F - 59.0 °F 94% 30.06 in 0.5 mi Calm Calm - 0.01 in Fog Fog
5:13 AM 60.8 °F - 59.0 °F 94% 30.06 in 1.2 mi Calm Calm - 0.01 in   Partly Cloudy
5:23 AM 59.0 °F - 57.2 °F 94% 30.06 in 3.0 mi Calm Calm - 0.01 in   Partly Cloudy
5:41 AM 60.8 °F - 60.8 °F 100% 30.06 in 2.5 mi Calm Calm - 0.01 in   Clear
5:48 AM 60.8 °F - 59.0 °F 94% 30.06 in 5.0 mi Calm Calm - 0.01 in   Clear
5:53 AM 61.0 °F - 59.0 °F 93% 30.06 in 7.0 mi Calm Calm - 0.01 in   Clear
5:57 AM 60.8 °F - 59.0 °F 94% 30.06 in 1.0 mi Calm Calm - N/A   Mist
6:04 AM 60.8 °F - 59.0 °F 94% 30.06 in 0.2 mi Calm Calm - N/A Fog Fog
6:13 AM 60.8 °F - 57.2 °F 88% 30.06 in 1.0 mi Calm Calm - N/A   Mist
6:15 AM 60.8 °F - 57.2 °F 88% 30.06 in 2.0 mi Calm Calm - N/A   Scattered Clouds
6:22 AM 60.8 °F - 59.0 °F 94% 30.06 in 7.0 mi Calm Calm - N/A   Partly Cloudy
6:33 AM 60.8 °F - 57.2 °F 88% 30.07 in 1.2 mi Calm Calm - N/A   Partly Cloudy
6:35 AM 60.8 °F - 57.2 °F 88% 30.06 in 0.8 mi Calm Calm - N/A   Mist
6:45 AM 59.0 °F - 57.2 °F 94% 30.07 in 0.5 mi Calm Calm - N/A Fog Fog
6:51 AM 60.8 °F - 59.0 °F 94% 30.07 in 1.2 mi Calm Calm - N/A   Scattered Clouds
6:53 AM 60.1 °F - 59.0 °F 96% 30.07 in 2.0 mi Calm Calm - N/A   Scattered Clouds
7:01 AM 60.8 °F - 57.2 °F 88% 30.07 in 6.0 mi Calm Calm - N/A   Scattered Clouds
7:17 AM 59.0 °F - 57.2 °F 94% 30.07 in 1.2 mi Calm Calm - N/A   Partly Cloudy
7:22 AM 59.0 °F - 57.2 °F 94% 30.07 in 0.2 mi Calm Calm - N/A Fog Fog
7:29 AM 59.0 °F - 57.2 °F 94% 30.08 in 0.5 mi Calm Calm - N/A Fog Fog
7:39 AM 60.8 °F - 57.2 °F 88% 30.08 in 1.2 mi Calm Calm - N/A   Partly Cloudy
7:53 AM 64.0 °F - 63.0 °F 96% 30.08 in 1.8 mi SE 3.5 mph - N/A   Partly Cloudy
8:00 AM 64.4 °F - 62.6 °F 94% 30.08 in 1.8 mi SE 3.5 mph - N/A   Mostly Cloudy
8:12 AM 64.4 °F - 64.4 °F 100% 30.09 in 0.5 mi Calm Calm - N/A Fog Fog
8:28 AM 66.2 °F - 64.4 °F 94% 30.09 in 0.2 mi SSE 3.5 mph - N/A Fog Fog
8:53 AM 66.9 °F - 66.0 °F 97% 30.10 in 0.2 mi SSE 3.5 mph - N/A Fog Fog
9:40 AM 66.2 °F - 66.2 °F 100% 30.11 in 0.8 mi SE 4.6 mph - N/A   Overcast
9:48 AM 68.0 °F - 66.2 °F 94% 30.11 in 1.8 mi Calm Calm - N/A   Overcast
9:53 AM 68.0 °F - 66.9 °F 96% 30.10 in 3.0 mi SE 3.5 mph - N/A   Overcast
10:00 AM 68.0 °F - 66.2 °F 94% 30.11 in 5.0 mi Calm Calm - N/A   Overcast
10:35 AM 69.8 °F - 66.2 °F 88% 30.10 in 9.0 mi SSE 5.8 mph - N/A   Mostly Cloudy
10:45 AM 71.6 °F - 66.2 °F 83% 30.10 in 10.0 mi South 6.9 mph - N/A   Scattered Clouds
10:53 AM 72.0 °F - 66.9 °F 84% 30.10 in 10.0 mi SSW 5.8 mph - N/A   Partly Cloudy
11:53 AM 79.0 °F - 63.0 °F 58% 30.07 in 10.0 mi South 10.4 mph - N/A   Clear
12:53 PM 82.0 °F 83.1 °F 63.0 °F 52% 30.05 in 10.0 mi SW 8.1 mph - N/A   Clear
1:53 PM 82.9 °F 83.7 °F 62.1 °F 49% 30.02 in 10.0 mi South 5.8 mph - N/A   Partly Cloudy
2:53 PM 84.0 °F 84.4 °F 61.0 °F 46% 29.99 in 10.0 mi SSW 9.2 mph - N/A   Mostly Cloudy
3:53 PM 84.2 °F 84.4 °F 60.8 °F 45% 29.99 in 10.0 mi South 6.9 mph - N/A   Partly Cloudy
4:53 PM 82.9 °F 83.3 °F 61.0 °F 47% 29.97 in 10.0 mi South 6.9 mph - N/A   Partly Cloudy
5:53 PM 79.0 °F - 63.0 °F 58% 29.96 in 10.0 mi Calm Calm - N/A   Clear
6:53 PM 70.0 °F - 64.9 °F 84% 29.98 in 10.0 mi Calm Calm - N/A   Clear
7:53 PM 69.1 °F - 64.0 °F 84% 29.97 in 10.0 mi Calm Calm - N/A   Clear
8:53 PM 71.1 °F - 62.1 °F 73% 29.98 in 10.0 mi SE 3.5 mph - N/A   Clear
9:53 PM 66.0 °F - 61.0 °F 84% 29.98 in 10.0 mi Calm Calm - N/A   Clear
10:53 PM 64.0 °F - 61.0 °F 90% 29.98 in 10.0 mi Calm Calm - N/A   Clear
11:53 PM 68.0 °F - 62.1 °F 81% 29.97 in 10.0 mi SSE 4.6 mph - N/A   Clear